CW9561 Weather Reports


time (UTC)temp
F
wind
direction
speed
knots
gust
knots
rain 1hr
in
rain 24hr
in
rain mn
in
humidity
%
barometer
mb
20260906225029 76 268 0.0 0.0 0.00 0.00 0.00 29 1024.2
20260906224027 76 252 0.0 0.0 0.00 0.00 0.00 29 1024.1
20260906223025 77 221 0.0 0.0 0.00 0.00 0.00 28 1024.2
20260906222025 77 94 0.0 0.0 0.00 0.00 0.00 28 1024.3
20260906221022 77 221 0.0 0.0 0.00 0.00 0.00 27 1024.2
20260906215039 79 186 0.0 0.0 0.00 0.00 0.00 25 1024.3
20260906214035 79 76 0.0 0.0 0.00 0.00 0.00 25 1024.5
20260906213036 78 192 0.9 0.0 0.00 0.00 0.00 26 1024.0
20260906212033 78 340 0.9 0.0 0.00 0.00 0.00 25 1024.1
20260906211031 77 341 0.9 0.0 0.00 0.00 0.00 27 1025.0
20260906210028 78 227 1.7 0.0 0.00 0.00 0.00 26 1025.4
20260906205025 79 277 0.9 0.0 0.00 0.00 0.00 27 1025.6
20260906204024 79 274 0.9 0.0 0.00 0.00 0.00 24 1025.7
20260906203026 79 223 0.9 0.0 0.00 0.00 0.00 23 1025.6
20260906202024 79 152 0.0 0.0 0.00 0.00 0.00 25 1025.7
20260906201039 78 105 0.9 0.0 0.00 0.00 0.00 27 1025.6
20260906200039 78 271 0.9 0.0 0.00 0.00 0.00 23 1025.7
20260906195035 77 176 0.9 0.0 0.00 0.00 0.00 28 1025.9
20260906194034 77 293 0.0 0.0 0.00 0.00 0.00 30 1025.8
20260906193031 76 237 0.9 0.0 0.00 0.00 0.00 32 1025.8
20260906192027 76 267 1.7 0.0 0.00 0.00 0.00 33 1026.0
20260906191028 76 252 0.9 0.0 0.00 0.00 0.00 31 1026.1
20260906190027 73 64 1.7 0.0 0.00 0.00 0.00 34 1026.2
20260906185025 74 117 3.5 0.0 0.00 0.00 0.00 33 1026.3
20260906184024 74 49 0.9 0.0 0.00 0.00 0.00 38 1026.4
20260906183025 72 275 3.5 0.0 0.00 0.00 0.00 38 1026.7
20260906181023 71 36 2.6 0.0 0.00 0.00 0.00 41 1027.1
20260906180020 71 90 1.7 0.0 0.00 0.00 0.00 41 1027.5
20260906174028 69 101 2.6 0.0 0.00 0.00 0.00 44 1027.8
20260906172023 68 78 1.7 0.0 0.00 0.00 0.00 45 1028.2
20260906171039 68 78 1.7 0.0 0.00 0.00 0.00 45 1028.3
20260906165039 67 84 0.0 0.0 0.00 0.00 0.00 50 1028.7
20260906164035 66 42 0.0 0.0 0.00 0.00 0.00 51 1028.9
20260906163031 66 26 0.0 0.0 0.00 0.00 0.00 53 1028.1
20260906162030 65 360 0.9 0.0 0.00 0.00 0.00 53 1028.3
20260906161029 64 54 1.7 0.0 0.00 0.00 0.00 55 1028.4
20260906160033 63 103 0.9 0.0 0.00 0.00 0.00 56 1028.5
20260906155029 62 88 0.9 0.0 0.00 0.00 0.00 56 1028.6
20260906151029 60 82 0.0 0.0 0.00 0.00 0.00 58 1028.7
20260906150024 59 82 0.0 0.0 0.00 0.00 0.00 58 1028.8
20260906145020 59 82 1.7 0.0 0.00 0.00 0.00 59 1028.8
20260906142020 58 264 0.0 0.0 0.00 0.00 0.00 60 1028.8
20260906141020 57 264 0.0 0.0 0.00 0.00 0.00 62 1028.8
20260906140039 56 264 0.0 0.0 0.00 0.00 0.00 64 1028.8
20260906135035 54 263 0.0 0.0 0.00 0.00 0.00 66 1028.8
20260906134031 50 263 0.0 0.0 0.00 0.00 0.00 73 1028.6
20260906133036 47 263 0.0 0.0 0.00 0.00 0.00 75 1028.5
20260906132035 45 263 0.0 0.0 0.00 0.00 0.00 77 1028.4
20260906131032 44 263 0.0 0.0 0.00 0.00 0.00 77 1028.4
20260906130033 44 263 0.0 0.0 0.00 0.00 0.00 77 1028.4
20260906125020 44 263 0.0 0.0 0.00 0.00 0.00 77 1028.5
20260906124036 45 263 0.0 0.0 0.00 0.00 0.00 76 1028.2
20260906123034 45 263 0.0 0.0 0.00 0.00 0.00 76 1028.1
20260906120039 45 263 3.5 0.0 0.00 0.00 0.00 75 1027.9
20260906115036 45 263 2.6 0.0 0.00 0.00 0.00 75 1027.8
20260906114033 45 263 2.6 0.0 0.00 0.00 0.00 75 1027.9
20260906113034 45 263 1.7 0.0 0.00 0.00 0.00 75 1027.9
20260906112036 46 263 0.0 0.0 0.00 0.00 0.00 74 1028.0
20260906111033 46 263 0.0 0.0 0.00 0.00 0.00 74 1028.2
20260906105030 46 263 0.0 0.0 0.00 0.00 0.00 74 1028.3
20260906104027 46 263 0.0 0.0 0.00 0.00 0.00 74 1028.3
20260906103023 46 263 0.0 0.0 0.00 0.00 0.00 75 1028.1
20260906102025 46 263 0.0 0.0 0.00 0.00 0.00 74 1028.0
20260906101022 46 263 0.0 0.0 0.00 0.00 0.00 75 1027.9
20260906100021 46 263 0.0 0.0 0.00 0.00 0.00 75 1027.8
20260906095036 47 263 0.0 0.0 0.00 0.00 0.00 75 1027.7
20260906094033 47 263 0.0 0.0 0.00 0.00 0.00 76 1027.5
20260906093035 46 263 0.0 0.0 0.00 0.00 0.00 76 1027.5
20260906092032 47 263 0.0 0.0 0.00 0.00 0.00 75 1027.4
20260906091030 47 263 0.0 0.0 0.00 0.00 0.00 76 1027.3
20260906090024 47 263 0.0 0.0 0.00 0.00 0.00 75 1027.3
20260906085025 47 263 0.0 0.0 0.00 0.00 0.00 75 1027.3
20260906084023 48 263 0.0 0.0 0.00 0.00 0.00 74 1027.3
20260906083021 48 263 0.0 0.0 0.00 0.00 0.00 73 1027.0
20260906082037 48 263 0.0 0.0 0.00 0.00 0.00 74 1027.0
20260906081033 49 263 0.0 0.0 0.00 0.00 0.00 72 1027.0
20260906080018 50 263 0.0 0.0 0.00 0.00 0.00 71 1027.6
20260906075037 50 263 0.9 0.0 0.00 0.00 0.00 71 1027.6
20260906074034 50 263 3.5 0.0 0.00 0.00 0.00 71 1027.6
20260906073030 50 263 3.5 0.0 0.00 0.00 0.00 70 1027.6
20260906072033 50 263 0.9 0.0 0.00 0.00 0.00 69 1027.8
20260906071029 51 263 0.0 0.0 0.00 0.00 0.00 69 1027.7
20260906070026 50 263 0.0 0.0 0.00 0.00 0.00 70 1027.7
20260906065022 50 263 0.0 0.0 0.00 0.00 0.00 71 1027.6
20260906064024 50 263 0.0 0.0 0.00 0.00 0.00 69 1027.6
20260906063021 50 263 1.7 0.0 0.00 0.00 0.00 69 1027.7
20260906062017 51 263 0.0 0.0 0.00 0.00 0.00 67 1027.7
20260906060036 52 263 3.5 0.0 0.00 0.00 0.00 66 1027.6
20260906055037 52 263 2.6 0.0 0.00 0.00 0.00 66 1027.7
20260906054034 53 263 2.6 0.0 0.00 0.00 0.00 64 1027.7
20260906053034 54 263 2.6 0.0 0.00 0.00 0.00 62 1027.7
20260906052032 55 263 2.6 0.0 0.00 0.00 0.00 60 1027.7
20260906051030 55 263 1.7 0.0 0.00 0.00 0.00 60 1027.7
20260906045033 55 263 2.6 0.0 0.00 0.00 0.00 59 1027.7
20260906044029 55 263 2.6 0.0 0.00 0.00 0.00 59 1027.8
20260906043025 55 263 2.6 0.0 0.00 0.00 0.00 59 1027.9
20260906042024 55 263 2.6 0.0 0.00 0.00 0.00 59 1027.9
20260906035027 57 263 0.0 0.0 0.00 0.00 0.00 55 1027.6
20260906034025 57 263 0.9 0.0 0.00 0.00 0.00 54 1027.5
20260906033027 57 263 0.0 0.0 0.00 0.00 0.00 54 1027.4
20260906032024 58 263 0.0 0.0 0.00 0.00 0.00 52 1027.4
20260906031041 59 263 0.0 0.0 0.00 0.00 0.00 51 1027.2
20260906030038 60 263 0.9 0.0 0.00 0.00 0.00 50 1027.2
20260906025035 62 263 0.0 0.0 0.00 0.00 0.00 49 1027.0
20260906024037 63 263 0.0 0.0 0.00 0.00 0.00 46 1026.8
20260906023035 64 263 0.0 0.0 0.00 0.00 0.00 45 1026.5
20260906022033 64 263 0.0 0.0 0.00 0.00 0.00 45 1026.3
20260906021032 64 263 0.0 0.0 0.00 0.00 0.00 45 1026.2
20260906020034 65 263 0.0 0.0 0.00 0.00 0.00 45 1026.2
20260906015031 65 263 0.0 0.0 0.00 0.00 0.00 44 1026.1
20260906014027 66 263 0.0 0.0 0.00 0.00 0.00 44 1026.0
20260906013023 67 263 0.0 0.0 0.00 0.00 0.00 41 1025.8
20260906012038 68 263 0.0 0.0 0.00 0.00 0.00 40 1025.9
20260906011041 69 263 0.0 0.0 0.00 0.00 0.00 37 1026.0
20260906010037 70 263 0.0 0.0 0.00 0.00 0.00 35 1026.0
20260906005035 71 263 0.0 0.0 0.00 0.00 0.00 36 1026.0
20260906004030 72 263 0.0 0.0 0.00 0.00 0.00 32 1026.0
20260906003033 73 263 0.0 0.0 0.00 0.00 0.00 32 1026.1
20260906002031 73 246 0.0 0.0 0.00 0.00 0.00 32 1026.1
20260906001028 73 245 0.0 0.0 0.00 0.00 0.00 30 1025.9
20260906000026 73 232 0.0 0.0 0.00 0.00 0.00 31 1025.9
20260905235026 73 232 0.0 0.0 0.00 0.00 0.00 31 1025.8
20260905234026 73 232 0.0 0.0 0.00 0.00 0.00 30 1025.8
20260905233023 74 231 0.0 0.0 0.00 0.00 0.00 29 1025.8
20260905232039 74 232 0.0 0.0 0.00 0.00 0.00 30 1025.7
20260905231034 75 225 0.0 0.0 0.00 0.00 0.00 30 1025.7
20260905230035 75 225 0.0 0.0 0.00 0.00 0.00 31 1025.7